SCP
0 0 0 0 0 0 0 0 0 0 0 0 0 0 0 0 0 0 0 0 0 0 0 0 0 0 0 0 0 0 0 0 0 0 0 0 0 0 0 0 0 0 0
0 0 0 0 0 0 0 0 0 0 0 0 0 0 0 0 0 0 0 0 0 0 0 0 0 0 0 0 0 0 0 0 0 0 0 0 0 0 0 0 0 0 0
0 0 0 0 0 0 0 0 0 0 0 0 0 0 0 0 0 0 0 0 0 0 0 0 0 0 0 0 0 0 0 0 0 0 0 0 0 0 0 0 0 0 0
0 0 0 0 0 0 0 0 0 0 0 0 0 0 0 0 0 0 0 0 0 0 0 0 0 0 0 0 0 0 0 0 0 0 0 0 0 0 0 0 0 0 0
0 0 0 0 0 0 0 0 0 0 0 0 0 0 0 0 0 0 0 0 0 0 0 0 0 0 0 0 0 0 0 0 0 0 0 0 0 0 0 0 0 0 0
0 0 0 0 0 0 0 0 0 0 0 0 0 0 0 0 0 0 0 0 0 0 0 0 0 0 0 0 0 0 0 0 0 0 0 0 0 0 0 0 0 0 0
0 0 0 0 0 0 0 0 0 0 0 0 0 0 0 0 0 0 0 0 0 0 0 0 0 0 0 0 0 0 0 0 0 0 0 0 0 0 0 0 0 0 0
0 0 0 0 0 0 0 0 0 0 0 0 0 0 0 0 0 0 0 0 0 0 0 0 0 0 0 0 0 0 0 0 0 0 0 0 0 0 0 0 0 0 0
0 0 0 0 0 0 0 0 0 0 0 0 0 0 0 0 0 0 0 0 0 0 0 0 0 0 0 0 0 0 0 0 0 0 0 0 0 0 0 0 0 0 0
0 0 0 0 0 0 0 0 0 0 0 0 0 0 0 0 0 0 0 0 0 0 0 0 0 0 0 0 0 0 0 0 0 0 0 0 0 0 0 0 0 0 0
0 0 0 0 0 0 0 0 0 0 0 0 0 0 0 0 0 0 0 0 0 0 0 0 0 0 0 0 0 0 0 0 0 0 0 0 0 0 0 0 0 0 0
0 0 0 0 0 0 0 0 0 0 0 0 0 0 0 0 0 0 0 0 0 0 0 0 0 0 0 0 0 0 0 0 0 0 0 0 0 0 0 0 0 0 0
0 0 0 0 0 0 0 0 0 0 0 0 0 0 0 0 0 0 0 0 0 0 0 0 0 0 0 0 0 0 0 0 0 0 0 0 0 0 0 0 0 0 0
0 0 0 0 0 0 0 0 0 0 0 0 0 0 0 0 0 0 0 0 0 0 0 0 0 0 0 0 0 0 0 0 0 0 0 0 0 0 0 0 0 0 0
0 0 0 0 0 0 0 0 0 0 0 0 0 0 0 0 0 0 0 0 0 0 0 0 0 0 0 0 0 0 0 0 0 0 0 0 0 0 0 0 0 0 0
0 0 0 0 0 0 0 0 0 0 0 0 0 0 0 0 0 0 0 0 0 0 0 0 0 0 0 0 0 0 0 0 0 0 0 0 0 0 0 0 0 0 0
0 0 0 0 0 0 0 0 0 0 0 0 0 0 0 0 0 0 0 0 0 0 0 0 0 0 0 0 0 0 0 0 0 0 0 0 0 0 0 0 0 0 0
0 0 0 0 0 0 0 0 0 0 0 0 0 0 0 0 0 0 0 0 0 0 0 0 0 0 0 0 0 0 0 0 0 0 0 0 0 0 0 0 0 0 0
0 0 0 0 0 0 0 0 0 0 0 0 0 0 0 0 0 0 0 0 0 0 0 0 0 0 0 0 0 0 0 0 0 0 0 0 0 0 0 0 0 0 0
0 0 0 0 0 0 0 0 0 0 0 0 0 0 0 0 0 0 0 0 0 0 0 0 0 0 0 0 0 0 0 0 0 0 0 0 0 0 0 0 0 0 0
0 0 0 0 0 0 0 0 0 0 0 0 0 0 0 0 0 0 0 0 0 0 0 0 0 0 0 0 0 0 0 0 0 0 0 0 0 0 0 0 0 0 0
0 0 0 0 0 0 0 0 0 0 0 0 0 0 0 0 0 0 0 0 0 0 0 0 0 0 0 0 0 0 0 0 0 0 0 0 0 0 0 0 0 0 0
0 0 0 0 0 0 0 0 0 0 0 0 0 0 0 0 0 0 0 0 0 0 0 0 0 0 0 0 0 0 0 0 0 0 0 0 0 0 0 0 0 0 0
0 0 0 0 0 0 0 0 0 0 0 0 0 0 0 0 0 0 0 0 0 0 0 0 0 0 0 0 0 0 0 0 0 0 0 0 0 0 0 0 0 0 0
0 0 0 0 0 0 0 0 0 0 0 0 0 0 0 0 0 0 0 0 0 0 0 0 0 0 0 0 0 0 0 0 0 0 0 0 0 0 0 0 0 0 0
0 0 0 0 0 0 0 0 0 0 0 0 0 0 0 0 0 0 0 0 0 0 0 0 0 0 0 0 0 0 0 0 0 0 0 0 0 0 0 0 0 0 0
Wind_Speed
3 2 2 3 4 5 5 5 6 6 5 4 4 3 3 4 3 3 4 4 4 4 3 4 4 3 3 4 4 4 5 4 2 3 4 4 6 7 7 6 6 7 8
2 3 3 3 4 5 5 5 6 6 5 4 3 3 3 3 3 3 4 4 4 4 4 4 3 4 4 4 4 4 3 3 3 2 2 3 3 5 7 6 7 8 6
2 3 3 3 4 5 5 6 6 6 6 5 4 3 2 3 3 3 3 4 5 5 4 4 4 3 3 4 4 5 6 5 4 4 3 3 4 2 3 5 6 6 6
2 2 3 4 4 4 4 5 5 6 6 5 4 4 3 3 3 4 4 5 5 5 5 4 4 3 3 4 4 4 4 5 5 3 4 4 2 2 3 2 3 4 6
3 3 3 4 4 4 4 4 5 5 5 5 5 4 3 3 4 4 5 5 5 5 5 5 4 4 3 4 4 4 4 4 5 4 3 4 4 4 3 4 2 2 3
3 3 3 3 3 3 3 4 5 5 5 5 5 4 5 5 5 5 5 5 4 4 5 5 5 4 3 4 4 4 4 4 5 4 3 3 3 3 4 5 4 4 3
4 3 4 3 3 4 4 4 4 5 5 5 4 4 4 4 4 5 5 5 4 4 6 6 5 4 4 4 3 3 3 3 4 4 3 3 3 2 2 4 4 4 3
4 4 4 4 3 3 3 3 4 4 4 4 4 4 4 3 3 4 4 4 4 4 6 6 5 5 5 4 3 2 3 2 3 3 3 3 3 2 2 2 3 4 3
5 5 4 4 3 3 3 3 3 4 4 4 4 4 4 4 4 4 4 3 4 4 5 6 5 5 5 5 3 2 3 2 2 3 2 2 2 2 2 2 2 3 4
5 5 5 4 4 3 3 2 2 3 3 3 3 3 3 3 4 3 4 4 5 5 5 5 5 5 5 5 4 3 3 3 2 2 2 2 2 1 1 1 2 2 4
6 5 5 4 3 3 2 2 2 2 2 2 2 3 3 3 3 3 4 4 4 5 5 5 5 5 6 6 5 5 4 4 3 3 2 3 3 2 1 1 1 2 3
5 5 5 4 3 3 3 2 2 2 2 2 2 3 3 3 3 4 4 4 4 5 5 5 5 5 5 5 5 5 5 5 4 4 3 3 3 3 3 2 2 2 2
5 5 4 4 4 4 3 3 2 2 1 1 1 2 3 3 3 3 4 4 4 5 5 5 5 5 5 5 5 5 5 5 5 4 4 4 3 3 3 3 2 2 2
5 5 5 5 5 4 4 3 3 2 1 0 0 1 2 2 2 3 3 4 4 4 5 5 5 5 5 5 5 5 4 4 5 4 4 4 3 3 3 2 3 3 3
6 6 6 5 4 4 4 4 3 2 1 1 0 1 1 1 2 2 3 3 4 4 4 4 5 5 4 4 4 4 4 4 4 5 5 4 5 6 4 3 3 3 2
8 7 6 6 6 5 5 4 4 3 2 2 2 1 0 1 2 2 2 3 3 4 4 4 5 5 5 8 8 6 4 4 4 4 5 5 5 7 8 8 7 6 4
8 7 7 7 6 6 5 5 4 3 2 2 2 1 0 0 1 1 2 3 3 3 4 4 4 5 6 9 9 9 5 4 4 4 4 4 5 6 4 6 7 7 8
7 7 6 6 5 4 4 4 3 3 3 3 2 2 1 1 0 1 1 2 2 2 2 3 4 4 6 9 8 8 5 4 4 4 4 4 5 5 5 4 4 4 4
7 6 5 5 4 4 4 4 4 3 3 4 3 3 2 2 1 0 1 1 1 2 2 2 3 4 6 9 8 7 3 3 4 5 5 5 4 8 8 4 4 4 5
4 4 3 3 4 4 4 5 5 4 6 5 4 3 3 3 2 1 1 0 0 1 2 2 2 3 4 8 8 7 2 3 3 4 5 8 8 9 9 4 4 5 5
4 3 3 4 5 4 5 5 5 7 6 4 3 3 3 3 3 2 1 1 1 1 1 2 3 3 4 7 8 7 2 2 3 3 4 5 10 11 11 8 4 6 6
3 3 3 4 3 4 5 6 7 6 4 4 4 3 3 3 2 2 2 1 1 1 1 1 2 2 3 5 6 8 7 5 3 3 3 4 10 11 10 7 8 10 8
4 3 4 3 3 4 6 7 6 4 5 4 4 4 3 3 2 3 2 2 1 1 0 1 1 2 2 3 7 7 8 7 4 3 6 8 9 9 7 8 11 8 4
4 3 3 4 4 4 5 6 4 5 5 5 4 4 4 3 3 2 2 2 2 2 1 1 2 2 2 3 3 3 3 5 4 3 5 8 8 6 7 7 6 4 4
4 4 5 5 5 4 5 5 5 5 6 5 5 4 4 4 3 3 3 3 3 4 3 2 2 2 2 4 6 4 3 3 3 3 2 2 3 4 4 4 4 4 5
4 4 5 5 5 4 4 4 5 6 6 5 5 4 3 3 3 3 1 3 3 4 4 3 2 2 4 6 7 7 7 7 7 4 2 3 3 4 5 5 5 5 5
Wind_Direction
296 328 347 351 356 356 356 346 343 341 345 342 339 330 323 318 322 318 317 313 310 307 294 292 282 264 251 249 246 240 241 237 223 237 256 251 235 232 231 228 227 230 227
308 326 338 351 351 345 344 341 342 340 341 332 316 292 292 294 294 306 316 318 319 317 310 300 288 273 263 255 246 238 241 242 210 214 244 266 263 240 234 228 228 231 226
266 301 320 325 334 337 337 337 334 335 335 332 324 320 317 314 323 328 328 329 326 322 313 302 289 279 264 263 256 241 235 242 228 209 212 226 240 270 250 232 230 228 226
260 279 301 312 317 317 322 325 328 331 333 336 338 336 334 320 312 318 316 322 326 325 322 311 301 289 277 268 262 255 246 240 242 232 229 237 225 226 271 273 246 240 239
248 267 282 291 301 309 317 320 325 328 334 339 339 334 321 308 310 319 321 326 330 333 332 323 314 304 293 286 277 268 257 247 247 239 238 243 246 236 241 267 272 268 250
243 262 280 290 296 307 318 324 325 328 336 339 340 337 326 323 327 331 331 331 330 333 340 333 324 310 302 294 286 274 263 256 252 248 239 234 238 236 233 252 263 263 266
231 253 272 284 293 306 314 321 325 327 333 336 337 336 329 326 325 326 328 330 331 332 335 334 328 322 315 308 302 289 276 262 257 252 247 242 249 253 240 247 260 264 267
230 242 254 261 271 291 306 314 323 322 330 335 331 334 339 336 327 329 330 329 326 323 328 329 327 327 324 320 314 301 291 274 257 260 254 250 252 247 242 242 250 267 263
236 242 252 254 260 278 287 297 309 317 325 330 330 335 346 342 334 334 336 332 330 329 338 334 334 338 338 335 329 320 316 307 291 280 273 266 268 266 264 259 245 249 263
242 247 249 250 253 261 276 294 300 306 318 330 332 340 340 339 339 342 344 344 340 341 342 346 349 353 354 354 352 343 338 337 326 312 309 299 299 300 299 287 278 263 261
240 242 245 246 247 254 260 270 287 304 323 332 332 338 337 340 350 353 347 346 346 350 354 357 1 5 6 5 4 1 354 354 346 346 349 336 332 329 334 328 322 303 282
239 238 242 244 246 250 251 252 265 278 290 316 341 342 341 349 358 356 352 355 359 360 1 6 10 10 9 9 10 7 5 3 3 1 7 2 6 3 355 356 345 321 308
245 242 240 243 244 243 241 241 246 255 278 314 345 346 349 353 353 352 356 2 5 6 8 14 16 13 12 14 13 15 16 15 11 8 12 7 14 8 359 358 347 329 326
246 242 240 242 243 240 236 234 239 240 242 266 351 345 339 339 345 355 4 9 11 13 11 12 12 9 10 16 15 14 18 20 16 14 17 14 12 359 352 356 343 331 324
253 243 238 238 237 239 239 233 234 228 206 182 221 287 320 336 352 8 11 13 19 19 12 13 11 6 7 14 17 11 22 26 22 19 15 13 17 10 5 358 340 332 321
250 246 240 234 232 229 228 227 229 221 192 193 222 252 317 5 9 9 14 20 21 18 20 17 11 6 7 16 24 29 27 25 25 14 5 6 11 9 7 2 357 349 329
247 241 234 228 229 224 216 217 220 202 187 204 216 215 200 14 356 11 27 22 14 18 20 14 13 7 4 15 23 34 32 25 16 6 360 358 356 358 343 348 354 354 352
242 239 232 228 224 212 207 203 191 185 190 204 215 206 188 208 336 31 21 8 11 18 14 10 8 4 1 12 21 30 32 22 9 360 352 346 340 341 338 340 343 341 341
235 234 226 219 210 206 195 180 189 190 196 209 214 208 192 189 175 100 351 360 21 15 7 4 6 0 349 4 15 26 17 13 1 354 353 347 336 339 345 345 334 330 328
235 230 219 203 208 207 175 177 196 198 213 214 209 199 185 181 190 202 185 92 71 15 2 4 0 351 341 355 9 19 25 5 351 348 348 353 350 346 352 351 339 332 325
242 220 205 213 219 193 170 190 203 217 218 199 187 185 184 187 188 174 150 131 96 48 15 360 349 343 344 351 1 6 12 353 345 346 346 343 350 353 356 357 350 332 333
245 218 215 232 224 186 180 202 221 222 189 175 179 184 185 188 172 161 159 139 125 84 3 351 337 329 331 346 350 358 0 358 351 336 329 333 347 353 356 356 348 348 350
245 228 220 234 233 200 191 212 225 189 171 172 182 184 178 180 171 171 172 158 152 160 248 292 306 316 321 332 348 353 354 355 351 329 333 341 351 355 357 357 357 357 348
241 228 220 229 239 221 210 219 210 176 171 180 185 180 177 180 179 182 183 177 185 196 223 251 276 299 316 317 319 324 334 340 339 334 341 349 355 358 354 355 354 348 337
235 215 217 228 238 230 223 215 194 174 178 183 184 181 183 182 183 191 198 195 202 197 208 226 238 266 294 308 324 332 326 322 317 335 350 346 344 347 344 341 340 339 338
228 224 227 231 235 226 227 213 190 179 178 183 186 182 180 183 184 188 215 228 215 229 239 246 255 271 292 314 328 332 333 336 339 353 345 338 339 338 336 335 333 331 332